�N����,����,����,����,����,�C��,���x,�~����,�S�V����,�ő�u�ԕ���,,,,,
,,,,,,,,,����,����,����,�N��,,
yyyy/mm/dd,hh:mm:ss,(16),16����,m/s,��,%,mm,KW/�u,(16),16����,m/s,Time,,
2016/4/1,1:00:00,12,��,1.9,-0.1,81.4,0,0,13,���k��,2.6,42,,
2016/4/1,2:00:00,14,�k��,1.7,0.8,84.9,0,0,16,�k,3.4,23,,
2016/4/1,3:00:00,14,�k��,2.3,0.9,80.7,0,0,14,�k��,3.9,37,,
2016/4/1,4:00:00,13,���k��,2.8,0.6,84.2,0,0,14,�k��,4.7,48,,
2016/4/1,5:00:00,12,��,0.6,0.3,87.5,0,0,13,���k��,4.7,3,,
2016/4/1,6:00:00,14,�k��,0.5,0.6,91.9,0,0.02,2,�k��,2.3,35,,
2016/4/1,7:00:00,16,�É�,0.2,1.8,86.7,0,0.1,12,��,1.8,15,,
2016/4/1,8:00:00,3,���k��,3.4,3.4,77,0,0.17,2,�k��,6.2,50,,
2016/4/1,9:00:00,3,���k��,4.8,2.7,84.1,0,0.19,4,��,8.6,56,,
2016/4/1,10:00:00,3,���k��,4.3,2.9,83,0,0.22,4,��,7.6,6,,
2016/4/1,11:00:00,3,���k��,4.1,3.3,79.8,0,0.39,4,��,6.9,10,,
2016/4/1,12:00:00,4,��,1.5,4.8,76.3,0,0.5,4,��,4.9,15,,
2016/4/1,13:00:00,4,��,3.1,4.2,73.5,0,0.73,4,��,5.1,55,,
2016/4/1,14:00:00,4,��,2.7,4.5,77.2,0,0.66,5,���쓌,5.3,4,,
2016/4/1,15:00:00,6,�쓌,2.6,3.6,76.7,0,0.61,6,�쓌,4.9,43,,
2016/4/1,16:00:00,6,�쓌,2.3,3.2,82.2,0,0.45,6,�쓌,4.7,5,,
2016/4/1,17:00:00,6,�쓌,2,2.4,84.7,0,0.2,7,��쓌,3.9,0,,
2016/4/1,18:00:00,6,�쓌,1,2.1,83.1,0,0.03,6,�쓌,3.2,17,,
2016/4/1,19:00:00,5,���쓌,2.1,2,81.7,0,0,5,���쓌,3,51,,
2016/4/1,20:00:00,5,���쓌,2.1,2.1,80.2,0,0,5,���쓌,3.4,52,,
2016/4/1,21:00:00,4,��,1.6,1.6,82.7,0,0,5,���쓌,3.2,22,,
2016/4/1,22:00:00,4,��,2.3,1.5,80.8,0,0,5,���쓌,3.6,37,,
2016/4/1,23:00:00,4,��,1.6,1.5,81.8,0,0,4,��,3.3,12,,
2016/4/1,0:00:00,4,��,0.9,1.3,83.3,0,0,4,��,2.2,7,,
2016/4/2,1:00:00,16,�É�,0.2,0.8,87.8,0,0,1,�k�k��,2.8,54,,
2016/4/2,2:00:00,4,��,1.1,1.1,82.2,0,0,14,�k��,2.9,14,,
2016/4/2,3:00:00,5,���쓌,1.8,1.2,76.4,0,0,5,���쓌,3.2,38,,
2016/4/2,4:00:00,6,�쓌,1.9,1.1,75.6,0,0,5,���쓌,2.9,9,,
2016/4/2,5:00:00,5,���쓌,2.5,1,78.2,0,0,5,���쓌,4.1,48,,
2016/4/2,6:00:00,5,���쓌,2.2,1.3,76.6,0,0.02,5,���쓌,4.1,2,,
2016/4/2,7:00:00,5,���쓌,2.5,1.6,75.1,0,0.1,5,���쓌,3.9,31,,
2016/4/2,8:00:00,6,�쓌,2.9,2.2,74,0,0.22,5,���쓌,4.7,48,,
2016/4/2,9:00:00,6,�쓌,3.1,2.2,65.3,0,0.34,6,�쓌,6,30,,
2016/4/2,10:00:00,6,�쓌,3.9,2.6,62.3,0,0.51,5,���쓌,6.4,21,,
2016/4/2,11:00:00,6,�쓌,3.9,3.1,63.2,0,0.57,5,���쓌,6.3,59,,
2016/4/2,12:00:00,6,�쓌,2.9,3.3,62.2,0,0.82,5,���쓌,6.5,14,,
2016/4/2,13:00:00,5,���쓌,3.8,3.3,67.2,0,0.91,6,�쓌,7.4,13,,
2016/4/2,14:00:00,5,���쓌,3.9,2.8,68.4,0,0.7,5,���쓌,6.4,29,,
2016/4/2,15:00:00,5,���쓌,3.2,2.8,69.6,0,0.49,5,���쓌,5.7,47,,
2016/4/2,16:00:00,5,���쓌,2.4,2.4,72.6,0,0.27,5,���쓌,4.8,27,,
2016/4/2,17:00:00,5,���쓌,2.4,1.8,76.3,0,0.18,5,���쓌,3.9,35,,
2016/4/2,18:00:00,5,���쓌,1.6,1.4,78.9,0,0.04,5,���쓌,4.9,37,,
2016/4/2,19:00:00,5,���쓌,2,1.5,79.2,0,0,5,���쓌,3.7,39,,
2016/4/2,20:00:00,5,���쓌,2.1,1.5,82.9,0,0,5,���쓌,3.9,20,,
2016/4/2,21:00:00,5,���쓌,1.2,1.2,87.2,0,0,4,��,2.3,51,,
2016/4/2,22:00:00,5,���쓌,0.7,1.2,89.4,0,0,6,�쓌,3.5,14,,
2016/4/2,23:00:00,12,��,0.5,0.8,94.1,0,0,4,��,2.9,34,,
2016/4/2,0:00:00,10,�쐼,1.5,1.6,93,0,0,6,�쓌,2.5,2,,
2016/4/3,1:00:00,8,��,2.3,2.7,87.1,0,0,7,��쓌,4.7,37,,
2016/4/3,2:00:00,7,��쓌,2.1,3,89.4,0,0,7,��쓌,5.2,27,,
2016/4/3,3:00:00,7,��쓌,2.6,3,93.9,0,0,6,�쓌,5.1,57,,
2016/4/3,4:00:00,6,�쓌,2.9,3,97.3,0,0,7,��쓌,6.6,27,,
2016/4/3,5:00:00,7,��쓌,2.2,3.4,98.4,0,0,8,��,6.4,21,,
2016/4/3,6:00:00,10,�쐼,1.3,2.8,98.6,0,0.01,6,�쓌,5.4,17,,
2016/4/3,7:00:00,14,�k��,1.2,1.6,99.7,0,0.04,11,���쐼,2.7,6,,
2016/4/3,8:00:00,13,���k��,1.8,1.6,99.9,0.5,0.07,14,�k��,3.6,59,,
2016/4/3,9:00:00,15,�k�k��,0.8,2.5,99.5,0.5,0.12,8,��,3.5,9,,
2016/4/3,10:00:00,14,�k��,2.9,3.3,98.4,0,0.21,14,�k��,7.4,33,,
2016/4/3,11:00:00,14,�k��,1.4,4.5,94.7,0,0.37,14,�k��,4.1,14,,
2016/4/3,12:00:00,13,���k��,1.2,5.6,91.7,0,0.39,13,���k��,3.7,46,,
2016/4/3,13:00:00,8,��,2.1,8.8,84.4,0,0.56,9,��쐼,3.9,52,,
2016/4/3,14:00:00,8,��,3.5,8.6,83.4,0,0.49,8,��,6.2,23,,
2016/4/3,15:00:00,8,��,2.3,10.4,77.3,0,0.37,9,��쐼,6.5,7,,
2016/4/3,16:00:00,9,��쐼,3.1,10.7,64.6,0,0.32,9,��쐼,6.6,46,,
2016/4/3,17:00:00,10,�쐼,2.5,8.8,68.2,0,0.15,10,�쐼,6,32,,
2016/4/3,18:00:00,9,��쐼,3.2,8.8,67,0,0.03,8,��,6.7,51,,
2016/4/3,19:00:00,9,��쐼,3,8.1,63.6,0,0,9,��쐼,4.8,54,,
2016/4/3,20:00:00,11,���쐼,1.6,4,89.6,0,0,9,��쐼,3.4,1,,
2016/4/3,21:00:00,10,�쐼,3.4,7.1,73.1,0,0,10,�쐼,4.7,58,,
2016/4/3,22:00:00,14,�k��,1.2,4.4,79.1,0,0,10,�쐼,4.8,2,,
2016/4/3,23:00:00,11,���쐼,3.5,6.6,60.8,0,0,11,���쐼,8.3,38,,
2016/4/3,0:00:00,11,���쐼,2.7,5.7,64.9,0,0,11,���쐼,6,16,,
2016/4/4,1:00:00,11,���쐼,2.7,6.1,60.9,0,0,12,��,4.4,53,,
2016/4/4,2:00:00,13,���k��,2.3,5.7,60.7,0,0,12,��,5.8,11,,
2016/4/4,3:00:00,6,�쓌,2.1,4,74.4,0,0,6,�쓌,3.2,55,,
2016/4/4,4:00:00,3,���k��,1.1,2.6,83,0,0,6,�쓌,2.5,1,,
2016/4/4,5:00:00,2,�k��,3.3,3.6,77.6,0,0,2,�k��,4.6,44,,
2016/4/4,6:00:00,2,�k��,1.8,3.9,77.8,0,0.02,2,�k��,4.4,12,,
2016/4/4,7:00:00,2,�k��,1.6,4.5,76.6,0,0.06,1,�k�k��,3.5,34,,
2016/4/4,8:00:00,3,���k��,0.8,5.8,71.8,0,0.13,2,�k��,2.1,42,,
2016/4/4,9:00:00,5,���쓌,1.1,6,72.4,0,0.21,4,��,2.6,10,,
2016/4/4,10:00:00,15,�k�k��,0.4,6.7,60.4,0,0.29,2,�k��,2.6,29,,
2016/4/4,11:00:00,5,���쓌,1.8,7.4,54.4,0,0.35,5,���쓌,2.7,51,,
2016/4/4,12:00:00,5,���쓌,1.3,7.5,54,0,0.36,4,��,2.9,28,,
2016/4/4,13:00:00,5,���쓌,2.4,7.1,50.7,0,0.33,5,���쓌,3.4,54,,
2016/4/4,14:00:00,4,��,1.8,7.9,51.1,0,0.31,4,��,3.2,59,,
2016/4/4,15:00:00,5,���쓌,1.9,6.9,66.1,0,0.43,5,���쓌,3.6,46,,
2016/4/4,16:00:00,5,���쓌,1.8,7.1,64.7,0,0.46,5,���쓌,4.1,4,,
2016/4/4,17:00:00,5,���쓌,2.1,5.2,78,0,0.28,4,��,3.4,1,,
2016/4/4,18:00:00,4,��,2.6,2,94.1,0,0.07,4,��,3.8,52,,
2016/4/4,19:00:00,1,�k�k��,0.6,0.8,98.2,0,0,3,���k��,3.5,5,,
2016/4/4,20:00:00,12,��,1.6,-1.1,99.2,0,0,12,��,2,59,,
2016/4/4,21:00:00,13,���k��,1.8,-0.3,99.8,0,0,13,���k��,2.7,51,,
2016/4/4,22:00:00,13,���k��,0.9,-1.7,98.1,0,0,13,���k��,3.4,32,,
2016/4/4,23:00:00,13,���k��,1.4,-1.6,98.6,0,0,12,��,3.2,22,,
2016/4/4,0:00:00,12,��,2.2,-1.8,98.9,0,0,12,��,2.9,58,,
2016/4/5,1:00:00,13,���k��,1.3,-2.1,98.3,0,0,12,��,3.4,21,,
2016/4/5,2:00:00,13,���k��,1.8,-1.9,97.5,0,0,13,���k��,3.3,17,,
2016/4/5,3:00:00,12,��,2.8,-3.1,97.8,0,0,13,���k��,4,7,,
2016/4/5,4:00:00,12,��,2.5,-3.8,98,0,0,12,��,3.3,58,,
2016/4/5,5:00:00,12,��,1.2,-5.1,97.1,0,0,12,��,3.1,3,,
2016/4/5,6:00:00,12,��,1.9,-2.9,97.7,0,0.07,11,���쐼,2.6,17,,
2016/4/5,7:00:00,11,���쐼,1,-0.1,90.7,0,0.29,12,��,2,39,,
2016/4/5,8:00:00,8,��,2.5,4,80.5,0,0.5,8,��,4.9,57,,
2016/4/5,9:00:00,6,�쓌,3.1,5.6,71.3,0,0.67,8,��,5.9,17,,
2016/4/5,10:00:00,1,�k�k��,2.7,9.5,57.5,0,0.81,5,���쓌,4.7,1,,
2016/4/5,11:00:00,7,��쓌,2.3,12.5,33.3,0,0.91,9,��쐼,5.4,55,,
2016/4/5,12:00:00,8,��,5.5,10.3,40.9,0,0.95,8,��,9.3,44,,
2016/4/5,13:00:00,9,��쐼,3.4,13.7,39.4,0,0.91,8,��,9.1,5,,
2016/4/5,14:00:00,10,�쐼,6.5,13.6,37.3,0,0.81,10,�쐼,10.1,48,,
2016/4/5,15:00:00,11,���쐼,5.7,13,35.4,0,0.66,10,�쐼,10.2,52,,
2016/4/5,16:00:00,11,���쐼,4.5,11.8,43.1,0,0.48,10,�쐼,10,32,,
2016/4/5,17:00:00,7,��쓌,2.5,9.1,48.8,0,0.26,11,���쐼,10.3,11,,
2016/4/5,18:00:00,10,�쐼,4.5,9.1,43.8,0,0.05,10,�쐼,9.5,46,,
2016/4/5,19:00:00,10,�쐼,5.9,8.7,48.1,0,0,11,���쐼,13.8,9,,
2016/4/5,20:00:00,11,���쐼,7.9,7.9,55.4,0,0,11,���쐼,11.9,10,,
2016/4/5,21:00:00,10,�쐼,6.3,7.2,63.1,0,0,11,���쐼,11,13,,
2016/4/5,22:00:00,11,���쐼,12.3,7.7,53.9,0,0,10,�쐼,21.2,58,,
2016/4/5,23:00:00,10,�쐼,3.1,6,69.9,0,0,10,�쐼,17.9,0,,
2016/4/5,0:00:00,10,�쐼,6.8,5.5,82.4,0,0,11,���쐼,10.4,55,,
2016/4/6,1:00:00,10,�쐼,4.7,4.6,83.6,0,0,10,�쐼,10.3,4,,
2016/4/6,2:00:00,15,�k�k��,1.6,4.1,84.7,0,0,11,���쐼,6,2,,
2016/4/6,3:00:00,14,�k��,3,4.6,60.9,0,0,14,�k��,5.4,51,,
2016/4/6,4:00:00,13,���k��,2.6,3.3,63.1,0,0,13,���k��,4.6,38,,
2016/4/6,5:00:00,16,�k,0.4,-1,78.3,0,0.01,12,��,3.5,56,,
2016/4/6,6:00:00,10,�쐼,1.4,0.9,83.3,0,0.07,12,��,2.7,19,,
2016/4/6,7:00:00,13,���k��,0.3,5.6,55.6,0,0.27,2,�k��,3,19,,
2016/4/6,8:00:00,14,�k��,2.5,8.5,42.8,0,0.5,14,�k��,6.7,59,,
2016/4/6,9:00:00,14,�k��,5.8,8.9,32.5,0,0.68,9,��쐼,10,56,,
2016/4/6,10:00:00,14,�k��,5,9.9,27.8,0,0.83,14,�k��,10.3,26,,
2016/4/6,11:00:00,14,�k��,5.5,10.8,30.4,0,0.94,14,�k��,11.2,24,,
2016/4/6,12:00:00,15,�k�k��,5.2,11.8,26.1,0,0.97,12,��,11.6,32,,
2016/4/6,13:00:00,8,��,4.6,10.2,42.1,0,0.93,13,���k��,10,1,,
2016/4/6,14:00:00,8,��,4.8,9.9,40.5,0,0.83,8,��,7.7,58,,
2016/4/6,15:00:00,8,��,4.3,10.5,34.5,0,0.67,8,��,7.4,11,,
2016/4/6,16:00:00,7,��쓌,2.8,10.1,37.8,0,0.49,8,��,6,9,,
2016/4/6,17:00:00,8,��,1.6,9.7,42.5,0,0.24,7,��쓌,3.6,0,,
2016/4/6,18:00:00,11,���쐼,1.8,9.5,37.7,0,0.08,11,���쐼,3.2,53,,
2016/4/6,19:00:00,8,��,0.9,2.9,62.7,0,0,7,��쓌,4.4,29,,
2016/4/6,20:00:00,1,�k�k��,0.5,2.5,63.9,0,0,10,�쐼,7.4,43,,
2016/4/6,21:00:00,12,��,2.6,-0.9,81.8,0,0,12,��,3.6,50,,
2016/4/6,22:00:00,14,�k��,1.8,-1.1,83.8,0,0,12,��,3.4,3,,
2016/4/6,23:00:00,12,��,1.9,-1.5,83.9,0,0,14,�k��,3.1,23,,
2016/4/6,0:00:00,12,��,2.3,-2.8,85.5,0,0,12,��,3.9,33,,
2016/4/7,1:00:00,11,���쐼,2.2,-3.4,86.8,0,0,12,��,3.3,50,,
2016/4/7,2:00:00,13,���k��,2.7,-3.2,88.1,0,0,12,��,3.6,43,,
2016/4/7,3:00:00,11,���쐼,2.4,-2.8,84.7,0,0,12,��,3.3,31,,
2016/4/7,4:00:00,11,���쐼,2,-3.4,88.3,0,0,13,���k��,3.8,16,,
2016/4/7,5:00:00,12,��,2.4,-4,89.8,0,0.01,12,��,3,51,,
2016/4/7,6:00:00,11,���쐼,1.6,-1.7,86.2,0,0.07,12,��,3.8,29,,
2016/4/7,7:00:00,12,��,1.1,2,78,0,0.23,12,��,2.9,26,,
2016/4/7,8:00:00,8,��,1.4,6.3,49.6,0,0.35,12,��,7.8,6,,
2016/4/7,9:00:00,8,��,2.2,8.9,44.9,0,0.48,8,��,3.5,56,,
2016/4/7,10:00:00,8,��,3.2,9.4,45.1,0,0.6,8,��,5.8,58,,
2016/4/7,11:00:00,7,��쓌,3.2,8.5,54.5,0,0.67,7,��쓌,6.2,46,,
2016/4/7,12:00:00,7,��쓌,3.8,8,65.9,0,0.61,7,��쓌,7.4,58,,
2016/4/7,13:00:00,7,��쓌,4,7,77.4,0,0.6,7,��쓌,9.2,30,,
2016/4/7,14:00:00,7,��쓌,3.9,6.8,79.2,0,0.31,7,��쓌,8.3,20,,
2016/4/7,15:00:00,6,�쓌,3.5,5.4,94.9,0,0.05,7,��쓌,8.6,10,,
2016/4/7,16:00:00,4,��,2.5,5,98.1,0,0.03,6,�쓌,5.1,1,,
2016/4/7,17:00:00,3,���k��,1.4,5.4,98.4,0,0.01,4,��,3,5,,
2016/4/7,18:00:00,3,���k��,1,5.2,98.7,0,0.01,2,�k��,3.1,33,,
2016/4/7,19:00:00,9,��쐼,4.4,6.6,99,1.5,0,9,��쐼,8.5,59,,
2016/4/7,20:00:00,8,��,5.3,7.2,98.7,1,0,8,��,11.1,39,,
2016/4/7,21:00:00,9,��쐼,4.2,6.1,98.7,0.5,0,8,��,10,2,,
2016/4/7,22:00:00,8,��,4.4,6.3,98.7,1.5,0,8,��,9.4,45,,
2016/4/7,23:00:00,8,��,2.8,5.2,94.6,1,0,9,��쐼,8.4,9,,
2016/4/7,0:00:00,16,�k,0.6,4.7,98.2,0.5,0,8,��,4.1,2,,
2016/4/8,1:00:00,16,�k,1,4.8,99.1,1,0,15,�k�k��,2,29,,
2016/4/8,2:00:00,14,�k��,1.8,5.3,99.2,2.5,0,14,�k��,3.1,40,,
2016/4/8,3:00:00,14,�k��,1.5,5.5,98.7,2,0,14,�k��,3.3,42,,
2016/4/8,4:00:00,1,�k�k��,1.5,5.7,98.6,1.5,0,2,�k��,2.9,43,,
2016/4/8,5:00:00,16,�k,1.5,5.2,97.4,0.5,0,2,�k��,3.2,24,,
2016/4/8,6:00:00,14,�k��,1.9,5.5,98.1,0.5,0.02,14,�k��,3,58,,
2016/4/8,7:00:00,13,���k��,1.5,5.8,98.3,0,0.09,13,���k��,3.5,17,,
2016/4/8,8:00:00,4,��,2.9,5.6,97.2,0,0.14,4,��,3.9,52,,
2016/4/8,9:00:00,4,��,2.5,5.9,95.5,0,0.28,4,��,4.7,25,,
2016/4/8,10:00:00,4,��,2.5,7.3,88.7,0,0.56,4,��,4.5,22,,
2016/4/8,11:00:00,6,�쓌,2.6,6,90.6,0,0.53,5,���쓌,5.8,25,,
2016/4/8,12:00:00,6,�쓌,3.2,6.1,87.9,0,0.67,5,���쓌,5.4,52,,
2016/4/8,13:00:00,6,�쓌,2.6,6.5,87.4,0,0.42,6,�쓌,4.6,20,,
2016/4/8,14:00:00,4,��,3.3,6.2,90.5,0,0.29,4,��,5.1,43,,
2016/4/8,15:00:00,4,��,3.1,8,85.5,0,0.59,4,��,5.3,8,,
2016/4/8,16:00:00,3,���k��,2.3,8.4,80.2,0,0.49,4,��,4,1,,
2016/4/8,17:00:00,4,��,2.7,6.9,86.8,0,0.31,4,��,4.8,48,,
2016/4/8,18:00:00,5,���쓌,0.8,4.4,94.6,0,0.07,3,���k��,3.5,10,,
2016/4/8,19:00:00,9,��쐼,2.1,2.3,94.5,0,0,9,��쐼,3.5,48,,
2016/4/8,20:00:00,9,��쐼,2.2,5.1,84,0,0,8,��,3.9,14,,
2016/4/8,21:00:00,3,���k��,2.1,2.4,91.6,0,0,1,�k�k��,3.9,31,,
2016/4/8,22:00:00,12,��,1.6,-0.2,97.6,0,0,12,��,3.7,37,,
2016/4/8,23:00:00,14,�k��,1,-0.3,98,0,0,2,�k��,3.4,46,,
2016/4/8,0:00:00,12,��,3.9,0.2,99,0,0,12,��,5.2,59,,
2016/4/9,1:00:00,14,�k��,3.1,3,64.1,0,0,14,�k��,6.6,42,,
2016/4/9,2:00:00,15,�k�k��,2,2.9,52.2,0,0,13,���k��,5.6,43,,
2016/4/9,3:00:00,7,��쓌,1.4,-3.5,85.1,0,0,15,�k�k��,2.7,1,,
2016/4/9,4:00:00,10,�쐼,0.8,-4.6,84.7,0,0,10,�쐼,2.8,21,,
2016/4/9,5:00:00,14,�k��,0.7,-2.8,90.6,0,0.01,8,��,4.1,28,,
2016/4/9,6:00:00,12,��,2.2,-1,89.1,0,0.04,11,���쐼,3.8,25,,
2016/4/9,7:00:00,16,�k,0.6,2.9,76.2,0,0.21,2,�k��,2.5,44,,
2016/4/9,8:00:00,6,�쓌,3,4.6,67.4,0,0.45,6,�쓌,5.2,51,,
2016/4/9,9:00:00,9,��쐼,3.3,3.8,77.6,0,0.33,7,��쓌,7.6,26,,
2016/4/9,10:00:00,7,��쓌,5.7,5.7,66.2,0,0.43,6,�쓌,10,14,,
2016/4/9,11:00:00,7,��쓌,6.5,8.6,60.5,0,0.74,7,��쓌,12.1,37,,
2016/4/9,12:00:00,10,�쐼,6.6,13.4,54.5,0,0.66,7,��쓌,12.3,10,,
2016/4/9,13:00:00,11,���쐼,11.3,13.7,32.3,0,0.87,10,�쐼,20.8,39,,
2016/4/9,14:00:00,11,���쐼,14.1,13.1,22.3,0,0.82,10,�쐼,23.9,48,,
2016/4/9,15:00:00,11,���쐼,11,12.5,25.2,0,0.67,10,�쐼,22.6,13,,
2016/4/9,16:00:00,11,���쐼,7.6,11.2,25.8,0,0.5,10,�쐼,20.5,7,,
2016/4/9,17:00:00,11,���쐼,7.1,9.3,29.4,0,0.28,10,�쐼,15.1,3,,
2016/4/9,18:00:00,11,���쐼,6.3,7.2,36.1,0,0.07,10,�쐼,11.8,23,,
2016/4/9,19:00:00,11,���쐼,5.1,5.7,37.5,0,0,11,���쐼,9.2,55,,
2016/4/9,20:00:00,11,���쐼,5.2,5.2,39.9,0,0,12,��,9.9,22,,
2016/4/9,21:00:00,11,���쐼,2.5,2.5,49.2,0,0,12,��,7.2,21,,
2016/4/9,22:00:00,13,���k��,2.8,0.5,60,0,0,9,��쐼,4.3,57,,
2016/4/9,23:00:00,14,�k��,2,1.9,53.1,0,0,14,�k��,4.4,41,,
2016/4/9,0:00:00,14,�k��,3,2.5,47.8,0,0,14,�k��,5.5,29,,
2016/4/10,1:00:00,14,�k��,1.6,1,54.5,0,0,13,���k��,4.3,2,,
2016/4/10,2:00:00,12,��,0.7,-2.3,68.2,0,0,16,�k,2.5,11,,
2016/4/10,3:00:00,11,���쐼,1.2,-3,84.7,0,0,11,���쐼,1.7,51,,
2016/4/10,4:00:00,16,�k,0.9,-1.7,80.3,0,0,14,�k��,2,36,,
2016/4/10,5:00:00,13,���k��,1.6,-3.4,87.6,0,0.01,14,�k��,2.5,58,,
2016/4/10,6:00:00,15,�k�k��,0.6,-1.2,84.2,0,0.07,10,�쐼,2.4,51,,
2016/4/10,7:00:00,16,�É�,0.1,5.1,46.7,0,0.26,3,���k��,3.8,50,,
2016/4/10,8:00:00,4,��,2.1,6.7,34.7,0,0.49,2,�k��,3.4,58,,
2016/4/10,9:00:00,5,���쓌,3.8,7.2,29.9,0,0.69,6,�쓌,5.2,59,,
2016/4/10,10:00:00,5,���쓌,2.5,8.9,28.4,0,0.85,6,�쓌,5.9,35,,
2016/4/10,11:00:00,6,�쓌,2.5,9.1,27.8,0,0.96,6,�쓌,5.7,19,,
2016/4/10,12:00:00,6,�쓌,4.2,9.2,25.2,0,0.99,6,�쓌,7.2,35,,
2016/4/10,13:00:00,6,�쓌,4,8.6,25,0,0.94,6,�쓌,7,3,,
2016/4/10,14:00:00,6,�쓌,3.8,9.3,29.2,0,0.83,6,�쓌,6.9,49,,
2016/4/10,15:00:00,6,�쓌,4.3,8.2,24.3,0,0.65,6,�쓌,6.7,3,,
2016/4/10,16:00:00,6,�쓌,3.3,7.8,26.5,0,0.5,6,�쓌,6.2,32,,
2016/4/10,17:00:00,8,��,1.6,6.7,31,0,0.25,7,��쓌,4.7,10,,
2016/4/10,18:00:00,13,���k��,1.3,5.3,36.7,0,0.06,14,�k��,4.3,57,,
2016/4/10,19:00:00,5,���쓌,0.5,3.1,48.2,0,0,13,���k��,2.8,25,,
2016/4/10,20:00:00,16,�k,1.9,3.1,44.5,0,0,15,�k�k��,5.2,42,,
2016/4/10,21:00:00,1,�k�k��,2.4,2.4,48.4,0,0,1,�k�k��,3.9,52,,
2016/4/10,22:00:00,14,�k��,1.4,0.7,58.5,0,0,1,�k�k��,5,11,,
2016/4/10,23:00:00,13,���k��,2,-1.1,70.7,0,0,13,���k��,2.9,0,,
2016/4/10,0:00:00,13,���k��,2.3,-2.2,76.8,0,0,12,��,2.9,47,,
2016/4/11,1:00:00,14,�k��,1.3,-0.4,61.2,0,0,13,���k��,3.7,31,,
2016/4/11,2:00:00,13,���k��,0.8,-1.1,71.3,0,0,14,�k��,3.6,18,,
2016/4/11,3:00:00,14,�k��,1.5,-0.9,68.5,0,0,1,�k�k��,2.2,10,,
2016/4/11,4:00:00,13,���k��,1.9,-0.7,66.7,0,0,13,���k��,3.1,50,,
2016/4/11,5:00:00,14,�k��,0.8,-2.7,78,0,0.01,14,�k��,3.1,14,,
2016/4/11,6:00:00,13,���k��,1.6,-0.4,71,0,0.05,13,���k��,3,3,,
2016/4/11,7:00:00,14,�k��,1.7,1.9,53,0,0.1,14,�k��,3.7,42,,
2016/4/11,8:00:00,1,�k�k��,2.5,2.6,53.3,0,0.17,15,�k�k��,5.4,39,,
2016/4/11,9:00:00,16,�k,2.1,2.8,63,0,0.27,14,�k��,7.1,21,,
2016/4/11,10:00:00,13,���k��,5.5,4.4,61.4,0,0.69,12,��,8.1,55,,
2016/4/11,11:00:00,5,���쓌,3.3,3.8,56.9,0,0.85,5,���쓌,6.3,56,,
2016/4/11,12:00:00,5,���쓌,4.5,3.2,67.9,0,0.69,4,��,8,42,,
2016/4/11,13:00:00,6,�쓌,4,3.5,66,0,0.53,6,�쓌,6.3,52,,
2016/4/11,14:00:00,5,���쓌,4.5,3,74.8,0,0.37,4,��,8.5,24,,
2016/4/11,15:00:00,7,��쓌,3.9,3,74.2,0,0.37,7,��쓌,7.2,25,,
2016/4/11,16:00:00,6,�쓌,2.2,2.3,75.7,0,0.19,6,�쓌,5.9,6,,
2016/4/11,17:00:00,7,��쓌,0.8,2.1,76.5,0,0.08,7,��쓌,3.5,7,,
2016/4/11,18:00:00,2,�k��,2.6,2,83.6,0,0.02,3,���k��,6.1,30,,
2016/4/11,19:00:00,2,�k��,2.4,0.9,83.3,0,0,2,�k��,4.6,24,,
2016/4/11,20:00:00,1,�k�k��,3.3,1.1,75.7,0,0,1,�k�k��,7.2,58,,
2016/4/11,21:00:00,1,�k�k��,3.2,0.9,71,0,0,2,�k��,6.7,33,,
2016/4/11,22:00:00,14,�k��,5.2,1.2,58.4,0,0,15,�k�k��,9.4,56,,
2016/4/11,23:00:00,13,���k��,6.9,1.6,50.5,0,0,14,�k��,11.9,49,,
2016/4/11,0:00:00,14,�k��,4.5,1,59.9,0,0,14,�k��,12.5,6,,
2016/4/12,1:00:00,14,�k��,1.8,-0.4,72.6,0,0,14,�k��,7.4,15,,
2016/4/12,2:00:00,12,��,3,-2.4,78.5,0,0,12,��,8.4,15,,
2016/4/12,3:00:00,13,���k��,2.5,-3.1,79,0,0,13,���k��,4.6,28,,
2016/4/12,4:00:00,16,�k,1.9,-0.3,64.1,0,0,12,��,9.2,7,,
2016/4/12,5:00:00,14,�k��,5.1,1.9,56.8,0,0.01,14,�k��,10.6,41,,
2016/4/12,6:00:00,16,�k,3.8,2.4,57.8,0,0.1,14,�k��,10.1,53,,
2016/4/12,7:00:00,15,�k�k��,4.5,4.5,46.6,0,0.3,8,��,10.9,53,,
2016/4/12,8:00:00,14,�k��,5.3,6,38.7,0,0.52,16,�k,12,18,,
2016/4/12,9:00:00,14,�k��,6.7,7.2,35.3,0,0.71,8,��,14.2,49,,
2016/4/12,10:00:00,15,�k�k��,5.5,8.8,30.8,0,0.85,14,�k��,11.7,26,,
2016/4/12,11:00:00,14,�k��,3.9,9.7,28.2,0,0.89,15,�k�k��,11.7,21,,
2016/4/12,12:00:00,7,��쓌,3.8,9,31.5,0,0.93,14,�k��,9.8,4,,
2016/4/12,13:00:00,7,��쓌,4.4,8,39.9,0,0.93,7,��쓌,7.4,26,,
2016/4/12,14:00:00,8,��,4.9,8.3,38.1,0,0.84,8,��,7.9,11,,
2016/4/12,15:00:00,7,��쓌,5.1,7.9,48.1,0,0.67,8,��,9.1,29,,
2016/4/12,16:00:00,8,��,3.4,8,45.9,0,0.45,7,��쓌,7.6,12,,
2016/4/12,17:00:00,8,��,2.7,7.5,49.2,0,0.27,8,��,6.7,27,,
2016/4/12,18:00:00,8,��,0.5,4.2,64.8,0,0.06,8,��,4.7,3,,
2016/4/12,19:00:00,13,���k��,1.3,3.5,72.1,0,0,13,���k��,2.5,21,,
2016/4/12,20:00:00,14,�k��,1.8,3.7,65.5,0,0,2,�k��,3.1,39,,
2016/4/12,21:00:00,12,��,1.2,2.3,80.9,0,0,14,�k��,2.5,2,,
2016/4/12,22:00:00,12,��,1.7,2.2,78.8,0,0,11,���쐼,2.2,53,,
2016/4/12,23:00:00,2,�k��,2.2,2.5,76.3,0,0,3,���k��,2.8,56,,
2016/4/12,0:00:00,3,���k��,1,2.7,88.4,0,0,3,���k��,2.8,51,,
2016/4/13,1:00:00,16,�É�,0.2,1.8,94.6,0,0,6,�쓌,8.5,21,,
2016/4/13,2:00:00,2,�k��,1.5,0.6,93.3,0,0,2,�k��,2.5,51,,
2016/4/13,3:00:00,5,���쓌,1,-0.1,93.6,0,0,9,��쐼,3.1,49,,
2016/4/13,4:00:00,8,��,2.7,5.3,55.2,0,0,8,��,6.8,41,,
2016/4/13,5:00:00,8,��,1.6,4.3,66,0,0.01,8,��,5,0,,
2016/4/13,6:00:00,9,��쐼,1.2,5.3,70.4,0,0.05,9,��쐼,4.9,45,,
2016/4/13,7:00:00,8,��,3.4,6.6,74.3,0,0.2,9,��쐼,7.6,54,,
2016/4/13,8:00:00,8,��,2.8,5.9,78.2,0,0.19,9,��쐼,6.8,36,,
2016/4/13,9:00:00,7,��쓌,2.5,7.4,75,0,0.35,8,��,5.1,17,,
2016/4/13,10:00:00,8,��,3.6,8.7,68.9,0,0.39,8,��,6.6,42,,
2016/4/13,11:00:00,8,��,4.1,9,66.5,0,0.49,7,��쓌,7.9,21,,
2016/4/13,12:00:00,8,��,2.4,9.5,61.4,0,0.45,8,��,7.5,7,,
2016/4/13,13:00:00,5,���쓌,4.7,8.6,68.3,0,0.65,4,��,6.8,25,,
2016/4/13,14:00:00,8,��,5.3,10.6,55.5,0,0.42,8,��,8.9,34,,
2016/4/13,15:00:00,8,��,5.5,10.4,59.6,0,0.41,8,��,10.5,35,,
2016/4/13,16:00:00,8,��,5.9,9.5,71.5,0,0.28,7,��쓌,10.9,16,,
2016/4/13,17:00:00,9,��쐼,3,8.9,76.2,0,0.13,8,��,8.2,5,,
2016/4/13,18:00:00,1,�k�k��,2.1,7.2,83.2,0,0.04,10,�쐼,4.8,4,,
2016/4/13,19:00:00,3,���k��,0.7,6.1,85,0,0,1,�k�k��,3.1,11,,
2016/4/13,20:00:00,16,�É�,0.2,5,88.3,0,0,5,���쓌,2.1,1,,
2016/4/13,21:00:00,2,�k��,1.4,6.3,87.6,0,0,1,�k�k��,2.5,27,,
2016/4/13,22:00:00,15,�k�k��,0.9,5.5,91.1,0,0,16,�k,2.8,59,,
2016/4/13,23:00:00,15,�k�k��,0.8,6.1,86.5,0,0,14,�k��,2.7,3,,
2016/4/13,0:00:00,1,�k�k��,2,5.7,90,0,0,1,�k�k��,2.5,57,,
2016/4/14,1:00:00,12,��,1.1,5,93.9,0,0,1,�k�k��,2.4,6,,
2016/4/14,2:00:00,14,�k��,0.7,4.8,90.3,0,0,8,��,2.1,18,,
2016/4/14,3:00:00,16,�É�,0.2,4.4,91.7,0,0,12,��,2.6,54,,
2016/4/14,4:00:00,16,�É�,0.2,2,92.1,0,0,15,�k�k��,1.2,7,,
2016/4/14,5:00:00,12,��,2.1,2,97.3,0,0.01,12,��,2.5,41,,
2016/4/14,6:00:00,16,�É�,0.2,5,91.9,0,0.08,13,���k��,2.7,39,,
2016/4/14,7:00:00,8,��,0.3,8.8,79.9,0,0.25,8,��,1.9,15,,
2016/4/14,8:00:00,8,��,1.4,11.5,66.1,0,0.49,6,�쓌,3,44,,
2016/4/14,9:00:00,6,�쓌,2.5,12.9,58.5,0,0.68,6,�쓌,3.9,59,,
2016/4/14,10:00:00,6,�쓌,1.6,14.3,58.1,0,0.83,5,���쓌,3.5,32,,
2016/4/14,11:00:00,5,���쓌,3.4,14.1,54.4,0,0.93,5,���쓌,5.6,46,,
2016/4/14,12:00:00,7,��쓌,3.5,12.1,61.3,0,0.85,7,��쓌,5.4,41,,
2016/4/14,13:00:00,5,���쓌,3.6,9.8,68.3,0,0.88,6,�쓌,5.5,8,,
2016/4/14,14:00:00,6,�쓌,2,9.8,74.6,0,0.51,5,���쓌,5.1,1,,
2016/4/14,15:00:00,7,��쓌,2.4,12.2,75.7,0,0.47,6,�쓌,3.7,52,,
2016/4/14,16:00:00,5,���쓌,2.9,8.8,81.4,0,0.47,5,���쓌,4.5,42,,
2016/4/14,17:00:00,4,��,3.1,6.6,88.6,0,0.12,3,���k��,5,45,,
2016/4/14,18:00:00,3,���k��,4.4,4.4,96.4,0,0.03,4,��,7.5,42,,
2016/4/14,19:00:00,3,���k��,2.8,4.6,98.6,0,0,4,��,4.8,18,,
2016/4/14,20:00:00,3,���k��,2.9,4.1,99.3,0,0,4,��,5.4,19,,
2016/4/14,21:00:00,1,�k�k��,2.5,4.1,99.6,0,0,3,���k��,4.8,1,,
2016/4/14,22:00:00,16,�k,0.7,4.2,99.8,0,0,3,���k��,4.7,8,,
2016/4/14,23:00:00,1,�k�k��,0.4,4.7,99.8,0,0,2,�k��,2.4,23,,
2016/4/14,0:00:00,12,��,1.8,5.1,99.8,0,0,12,��,3.1,6,,
2016/4/15,1:00:00,12,��,1.8,5.2,99.8,0,0,12,��,3.8,47,,
2016/4/15,2:00:00,13,���k��,2.1,5.5,99.9,0,0,13,���k��,3.2,41,,
2016/4/15,3:00:00,14,�k��,1.7,5.6,99.9,0,0,13,���k��,2.9,38,,
2016/4/15,4:00:00,13,���k��,0.9,5.7,99.8,0,0,12,��,2.8,36,,
2016/4/15,5:00:00,14,�k��,1.3,5.7,99.9,0,0,13,���k��,2,59,,
2016/4/15,6:00:00,13,���k��,1,6.1,99.9,0,0.02,13,���k��,2.7,18,,
2016/4/15,7:00:00,16,�É�,0,6.8,100,1,0.08,8,��,1.9,27,,
2016/4/15,8:00:00,12,��,2.4,8.5,96.9,0,0.3,12,��,4.4,58,,
2016/4/15,9:00:00,14,�k��,6.3,9.7,66.4,0,0.63,15,�k�k��,10.2,33,,
2016/4/15,10:00:00,15,�k�k��,7.1,10.9,49.2,0,0.87,9,��쐼,14.4,26,,
2016/4/15,11:00:00,14,�k��,8.7,11.2,40.3,0,0.96,14,�k��,16.5,47,,
2016/4/15,12:00:00,14,�k��,10.5,11.1,35.2,0,0.92,14,�k��,19,39,,
2016/4/15,13:00:00,14,�k��,10.2,10.4,35.6,0,0.8,10,�쐼,22,11,,
2016/4/15,14:00:00,14,�k��,10.9,9.5,38.9,0,0.66,14,�k��,23,17,,
2016/4/15,15:00:00,14,�k��,10.7,8.6,38.2,0,0.45,14,�k��,21,58,,
2016/4/15,16:00:00,14,�k��,8.7,7.2,47.4,0,0.48,13,���k��,20.8,42,,
2016/4/15,17:00:00,14,�k��,10.2,6.7,43.4,0,0.24,14,�k��,19.4,13,,
2016/4/15,18:00:00,13,���k��,9.2,5.6,46.6,0,0.06,14,�k��,19.2,30,,
2016/4/15,19:00:00,14,�k��,7.8,4.9,48.3,0,0.01,8,��,16.3,3,,
2016/4/15,20:00:00,13,���k��,8.5,4.5,52.8,0,0,14,�k��,17.8,58,,
2016/4/15,21:00:00,14,�k��,8.6,4.2,54,0,0,14,�k��,16.5,54,,
2016/4/15,22:00:00,14,�k��,6.4,4,54.6,0,0,14,�k��,17.3,10,,
2016/4/15,23:00:00,14,�k��,8.1,4,54,0,0,13,���k��,17.9,25,,
2016/4/15,0:00:00,13,���k��,8.1,4,52.6,0,0,7,��쓌,19.4,11,,
2016/4/16,1:00:00,14,�k��,8.9,3.8,50.7,0,0,14,�k��,17.7,56,,
2016/4/16,2:00:00,14,�k��,6.7,3.3,51.9,0,0,13,���k��,17.5,9,,
2016/4/16,3:00:00,15,�k�k��,9.5,3.8,48.8,0,0,14,�k��,20.7,45,,
2016/4/16,4:00:00,13,���k��,9.4,4,44.9,0,0,13,���k��,17.4,55,,
2016/4/16,5:00:00,14,�k��,5.7,4.1,42,0,0.01,12,��,18.1,0,,
2016/4/16,6:00:00,13,���k��,5.2,4.6,42.6,0,0.12,14,�k��,11.7,30,,
2016/4/16,7:00:00,14,�k��,4.6,7.3,29.2,0,0.33,13,���k��,9.9,58,,
2016/4/16,8:00:00,14,�k��,6.6,9.1,23.7,0,0.55,7,��쓌,12.4,52,,
2016/4/16,9:00:00,14,�k��,6.9,10.9,20.3,0,0.73,14,�k��,13.5,0,,
2016/4/16,10:00:00,14,�k��,6.4,11.9,19.4,0,0.85,14,�k��,14.9,53,,
2016/4/16,11:00:00,14,�k��,4.6,13.5,18.2,0,0.96,12,��,12.2,25,,
2016/4/16,12:00:00,7,��쓌,4.9,11.7,26.6,0,0.96,13,���k��,9.2,0,,
2016/4/16,13:00:00,8,��,5.5,11.7,26.3,0,0.92,9,��쐼,9.8,41,,
2016/4/16,14:00:00,8,��,5.7,11.3,25.6,0,0.81,8,��,9.1,58,,
2016/4/16,15:00:00,8,��,4.2,12.4,29.5,0,0.58,8,��,9.8,7,,
2016/4/16,16:00:00,7,��쓌,2.5,11.3,41,0,0.44,7,��쓌,6.2,3,,
2016/4/16,17:00:00,9,��쐼,1.8,12.6,41.1,0,0.22,10,�쐼,3.9,0,,
2016/4/16,18:00:00,12,��,5.5,10.8,41.6,0,0.07,10,�쐼,9.9,21,,
2016/4/16,19:00:00,12,��,3.9,10,45.4,0,0.01,12,��,8.3,10,,
2016/4/16,20:00:00,11,���쐼,2.3,9.4,49.9,0,0,12,��,6.8,26,,
2016/4/16,21:00:00,8,��,1.4,9,48.6,0,0,10,�쐼,3.3,15,,
2016/4/16,22:00:00,7,��쓌,1.5,7.5,60.4,0,0,10,�쐼,2.7,8,,
2016/4/16,23:00:00,3,���k��,2.5,5.5,77,0,0,2,�k��,4.6,50,,
2016/4/16,0:00:00,2,�k��,3,5.4,69.6,0,0,2,�k��,6.2,44,,
2016/4/17,1:00:00,2,�k��,2.7,5.2,65.6,0,0,2,�k��,5.7,34,,
2016/4/17,2:00:00,4,��,2.4,4.3,75.1,0,0,3,���k��,3.4,4,,
2016/4/17,3:00:00,1,�k�k��,2.1,3.8,72.2,0,0,4,��,4.8,7,,
2016/4/17,4:00:00,2,�k��,2.2,3.8,72.2,0,0,1,�k�k��,3.4,57,,
2016/4/17,5:00:00,14,�k��,0.9,4.1,71.3,0,0.01,1,�k�k��,3.7,37,,
2016/4/17,6:00:00,14,�k��,1,4.2,79.1,0,0.02,3,���k��,2.4,37,,
2016/4/17,7:00:00,13,���k��,1.9,3.9,88.4,0,0.05,14,�k��,2.7,59,,
2016/4/17,8:00:00,15,�k�k��,2,3.4,91.5,1,0.04,15,�k�k��,3.8,54,,
2016/4/17,9:00:00,13,���k��,2.7,3.8,93.1,0.5,0.08,14,�k��,4.6,58,,
2016/4/17,10:00:00,14,�k��,1,4.2,91,0.5,0.1,14,�k��,5.9,18,,
2016/4/17,11:00:00,14,�k��,2.7,4.2,91.1,0,0.08,15,�k�k��,4.6,50,,
2016/4/17,12:00:00,13,���k��,1.7,3.9,95.3,1,0.04,13,���k��,4.6,1,,